Location: Newark
(41.2758°N, 92.6808°W)
Time: 23:47:00
(UTC+00:00)

N. Korean satellite - Pass Details

Date: 27 September 2019
Orbit: 455 x 508 km, 97.2° (Epoch: 16 October)

Event Time Altitude Azimuth Distance (km) Brightness Sun altitude
Rises 11:26:37 0° 25° (NNE) 2,481 10.6 -7.7°
Reaches altitude 10° 11:28:57 10° 41° (NE) 1,605 9.9 -7.2°
Maximum altitude 11:31:46 23° 96° (E) 1,018 9.4 -6.7°
Drops below altitude 10° 11:34:35 10° 150° (SSE) 1,608 9.6 -6.2°
Sets 11:36:54 0° 166° (SSE) 2,486 10.3 -5.8°
